Location: Gad�tanya
(48.0500°N, 20.8500°E)
Time: 08:07:04
(UTC+00:00)

Cosmos 2228 Rocket - Pass Details

Date: 05 July 2020
Orbit: 618 x 652 km, 82.5° (Epoch: 05 August)

Event Time Altitude Azimuth Distance (km) Brightness Sun altitude
Rises 22:50:50 0° 351° (N) 2,987 8.1 -19.3°
Reaches altitude 10° 22:53:07 10° 352° (N) 2,070 6.9 -19.2°
Maximum altitude 22:57:43 81° 80° (E) 664 3.1 -19.2°
Enters shadow 22:59:19 41° 163° (SSE) 945 3.5 -19.2°
